"Pseudo-MPEC" for C161965

Created 2025 Oct 18 1:35:05 UT using Find_Orb

Click here for an explanation of pseudo-MPECs

 
 Astrometry: 
     C161965* C2025 10 03.45563504 24 09.529-02 26 29.90   ~A3Bo       VNEOCPV00
     C161965  C2025 10 03.46122704 24 02.560-02 25 10.96   ~A3Bo 20.34GVNEOCPV00
     C161965  C2025 10 03.46680604 23 55.518-02 23 50.82   ~A3Bo 20.21GVNEOCPV00
     C161965  C2025 10 03.47239104 23 48.520-02 22 31.87   ~A3Bo 21.14GVNEOCPV00
     C161965 mC2025 10 03.49679604 23 18.146-02 16 44.76   ~A3CK 21.31GVNEOCPV00
     C161965 mC2025 10 03.49718304 23 17.675-02 16 39.47   ~A3CK 21.48GVNEOCPV00
     C161965 mC2025 10 03.49757104 23 17.192-02 16 34.00   ~A3CK 21.13GVNEOCPV00
     C161965 mC2025 10 03.49796004 23 16.710-02 16 28.09   ~A3CK 20.87GVNEOCPV00
     C161965 mC2025 10 03.51397104 22 57.032-02 12 43.31   ~A3CZ 20.66GVNEOCPV00
     C161965 mC2025 10 03.51435704 22 56.568-02 12 37.84   ~A3CZ 20.90GVNEOCPV00
     C161965 mC2025 10 03.51474604 22 56.096-02 12 32.40   ~A3CZ 21.00GVNEOCPV00
     C161965 mC2025 10 03.51513404 22 55.618-02 12 26.89   ~A3CZ 20.93GVNEOCPV00

Station data:
(V00) Kitt Peak-Bok  (N31.963125 W111.600190)  US/Arizona. Measurers T.
   Beuden, V. F. Carvajal, D. Fay, J. B. Fazekas, D. C. Fuls, A. R. Gibbs, A.
   D. Grauer, H. Gröller, J. K. Hogan, R. A. Kowalski, S. M. Larson, G. J.
   Leonard, D. Rankin, R. L. Seaman, F. C. Shelly, K. W. Wierzchoś. 2.25-m
   reflector + 4x4K mosaic CCD.

Orbital elements:  C161965
   Perihelion 2025 Sep 3.499458 +/- 1.96 TT = 11:59:13.2 (JD 2460921.999458)
Epoch 2025 Oct  3.0 TT = JDT 2460951.5   Earth MOID: 0.0015   Ma: 0.0058
M  14.486818752 +/- 8               (J2000 ecliptic)             AutoNEOCP
n   0.491069586 +/- 0.261           Peri.  227.912899 +/- 70
a   1.591136202 +/- 0.564           Node   107.099211 +/- 70
e   0.39889530 +/- 0.228            Incl.    0.449580 +/- 0.22
P   2.007/733.080d         H 27.66  G  0.15   U 11.8
q 0.956439446 +/- 0.0238    Q 2.225832958 +/- 1.15
From 12 observations 2025 Oct. 3 (85.7 min); mean residual 0".29
Residuals in arcseconds: 
251003 V00  .51-  .62+    251003 V00  .11-  .27+    251003 V00  .08-  .16-    
251003 V00  .55+  .46-    251003 V00  .00   .10+    251003 V00  .04+  .11-    
251003 V00  .05+  .00     251003 V00  .06-  .09+    251003 V00  .09+  .13-    
251003 V00  .06+  .68-    251003 V00  .08-  .51+    251003 V00  .04+  .06-    

Ephemerides (geocentric):
Date (UTC) HH   RA             Dec           delta  r     elong  mag " sig PA
---- --------  ------------   ------------  ------ ------ -----  --- --------
2025 10 18 02  03 12 19.249   +11 53 20.31  .08183 1.0712 155.0 23.5 2187 171
2025 10 18 03  03 12 15.171   +11 53 52.23  .08202 1.0714 155.1 23.5 2190 171
2025 10 18 04  03 12 11.103   +11 54 24.00  .08221 1.0716 155.2 23.5 2192 171
2025 10 18 05  03 12 07.045   +11 54 55.61  .08239 1.0717 155.2 23.5 2195 171
2025 10 18 06  03 12 02.998   +11 55 27.07  .08258 1.0719 155.3 23.5 2198 171
2025 10 18 07  03 11 58.962   +11 55 58.38  .08277 1.0721 155.3 23.5 2201 171
2025 10 18 08  03 11 54.936   +11 56 29.53  .08296 1.0723 155.4 23.5 2203 171
2025 10 18 09  03 11 50.921   +11 57 00.54  .08315 1.0725 155.4 23.5 2206 171
2025 10 18 10  03 11 46.915   +11 57 31.39  .08333 1.0727 155.5 23.5 2209 171
2025 10 18 11  03 11 42.920   +11 58 02.09  .08352 1.0729 155.5 23.5 2211 171
2025 10 18 12  03 11 38.936   +11 58 32.65  .08371 1.0731 155.6 23.5 2214 170
2025 10 18 13  03 11 34.961   +11 59 03.05  .08390 1.0733 155.7 23.5 2217 170
2025 10 18 14  03 11 30.996   +11 59 33.32  .08409 1.0735 155.7 23.5 2220 170
2025 10 18 15  03 11 27.042   +12 00 03.43  .08428 1.0737 155.8 23.5 2222 170
2025 10 18 16  03 11 23.097   +12 00 33.40  .08446 1.0739 155.8 23.5 2225 170
2025 10 18 17  03 11 19.163   +12 01 03.23  .08465 1.0741 155.9 23.5 2227 170
2025 10 18 18  03 11 15.238   +12 01 32.92  .08484 1.0743 155.9 23.5 2230 170
2025 10 18 19  03 11 11.323   +12 02 02.46  .08503 1.0745 156.0 23.5 2233 170
2025 10 18 20  03 11 07.417   +12 02 31.87  .08522 1.0747 156.0 23.5 2235 170
2025 10 18 21  03 11 03.522   +12 03 01.13  .08541 1.0748 156.1 23.5 2238 170
2025 10 18 22  03 10 59.635   +12 03 30.25  .08560 1.0750 156.2 23.5 2240 170
2025 10 18 23  03 10 55.759   +12 03 59.24  .08579 1.0752 156.2 23.5 2243 170
2025 10 19 00  03 10 51.892   +12 04 28.09  .08598 1.0754 156.3 23.5 2246 170
2025 10 19 01  03 10 48.034   +12 04 56.80  .08617 1.0756 156.3 23.5 2248 170
2025 10 19 02  03 10 44.186   +12 05 25.38  .08636 1.0758 156.4 23.6 2251 169
2025 10 19 03  03 10 40.347   +12 05 53.83  .08654 1.0760 156.4 23.6 2253 169
2025 10 19 04  03 10 36.518   +12 06 22.14  .08673 1.0762 156.5 23.6 2256 169
2025 10 19 05  03 10 32.697   +12 06 50.31  .08692 1.0764 156.5 23.6 2258 169
2025 10 19 06  03 10 28.886   +12 07 18.36  .08711 1.0766 156.6 23.6 2261 169
2025 10 19 07  03 10 25.084   +12 07 46.27  .08730 1.0768 156.7 23.6 2263 169
2025 10 19 08  03 10 21.292   +12 08 14.06  .08749 1.0770 156.7 23.6 2266 169
2025 10 19 09  03 10 17.508   +12 08 41.71  .08768 1.0772 156.8 23.6 2268 169
2025 10 19 10  03 10 13.733   +12 09 09.24  .08787 1.0774 156.8 23.6 2271 169
2025 10 19 11  03 10 09.967   +12 09 36.64  .08806 1.0776 156.9 23.6 2273 169
2025 10 19 12  03 10 06.210   +12 10 03.91  .08825 1.0778 156.9 23.6 2276 169
2025 10 19 13  03 10 02.462   +12 10 31.06  .08844 1.0780 157.0 23.6 2278 169
2025 10 19 14  03 09 58.723   +12 10 58.08  .08863 1.0782 157.0 23.6 2281 169
2025 10 19 15  03 09 54.992   +12 11 24.97  .08882 1.0784 157.1 23.6 2283 169
2025 10 19 16  03 09 51.270   +12 11 51.74  .08901 1.0786 157.2 23.6 2286 168
2025 10 19 17  03 09 47.557   +12 12 18.39  .08920 1.0788 157.2 23.6 2288 168
2025 10 19 18  03 09 43.852   +12 12 44.92  .08940 1.0790 157.3 23.6 2291 168
2025 10 19 19  03 09 40.156   +12 13 11.32  .08959 1.0792 157.3 23.6 2293 168
2025 10 19 20  03 09 36.469   +12 13 37.61  .08978 1.0794 157.4 23.6 2295 168
2025 10 19 21  03 09 32.790   +12 14 03.77  .08997 1.0796 157.4 23.6 2298 168
2025 10 19 22  03 09 29.119   +12 14 29.82  .09016 1.0798 157.5 23.6 2300 168
2025 10 19 23  03 09 25.457   +12 14 55.74  .09035 1.0799 157.5 23.6 2303 168
2025 10 20 00  03 09 21.803   +12 15 21.55  .09054 1.0801 157.6 23.6 2305 168
2025 10 20 01  03 09 18.158   +12 15 47.25  .09073 1.0803 157.6 23.6 2307 168